Time,TemperatureF,DewpointF,PressureIn,WindDirection,WindDirectionDegrees,WindSpeedMPH,WindSpeedGustMPH,Humidity,HourlyPrecipIn,Conditions,Clouds,dailyrainin,SoftwareType,DateUTC
2013-04-11 00:03:00,57.0,57.0,-100.00,ESE,110,0.0,6.0,98,0.00,,,-99.99,,2013-04-11 04:03:00,
2013-04-11 00:13:00,57.0,56.0,-100.00,NNW,330,1.0,2.0,98,0.00,,,-99.99,,2013-04-11 04:13:00,
2013-04-11 00:22:00,57.0,56.0,-100.00,West,280,2.0,4.0,98,0.00,,,-99.99,,2013-04-11 04:22:00,
2013-04-11 00:33:00,57.0,57.0,-100.00,WNW,300,3.0,4.0,98,0.00,,,-99.99,,2013-04-11 04:33:00,
2013-04-11 00:42:00,57.0,57.0,-100.00,NNW,335,1.0,6.0,98,2.24,,,-99.99,,2013-04-11 04:42:00,
2013-04-11 00:52:00,57.0,57.0,-100.00,WNW,300,1.0,3.0,98,0.00,,,-99.99,,2013-04-11 04:52:00,
2013-04-11 01:02:00,57.0,57.0,-100.00,NNW,340,1.0,5.0,98,0.00,,,-99.99,,2013-04-11 05:02:00,
2013-04-11 01:13:00,58.0,57.0,-100.00,SSW,200,5.0,9.0,98,0.00,,,-99.99,,2013-04-11 05:13:00,
2013-04-11 01:22:00,57.0,57.0,-100.00,SSE,155,1.0,7.0,98,0.00,,,-99.99,,2013-04-11 05:22:00,
2013-04-11 01:32:00,57.0,56.0,-100.00,South,175,4.0,5.0,98,0.00,,,-99.99,,2013-04-11 05:32:00,
2013-04-11 01:42:00,57.0,56.0,-100.00,SE,145,4.0,6.0,98,0.00,,,-99.99,,2013-04-11 05:42:00,
2013-04-11 01:52:00,57.0,57.0,-100.00,SE,130,2.0,5.0,98,0.00,,,-99.99,,2013-04-11 05:52:00,
2013-04-11 02:02:00,57.0,56.0,-100.00,ESE,115,4.0,6.0,98,0.00,,,-99.99,,2013-04-11 06:02:00,
2013-04-11 02:12:00,57.0,56.0,-100.00,ESE,120,5.0,7.0,98,0.00,,,-99.99,,2013-04-11 06:12:00,
2013-04-11 02:22:00,57.0,56.0,-100.00,ESE,120,5.0,7.0,98,0.00,,,-99.99,,2013-04-11 06:22:00,
2013-04-11 02:32:00,56.0,56.0,-100.00,ESE,110,4.0,6.0,98,0.00,,,-99.99,,2013-04-11 06:32:00,
2013-04-11 02:42:00,56.0,56.0,-100.00,SE,145,4.0,6.0,99,0.00,,,-99.99,,2013-04-11 06:42:00,
2013-04-11 02:52:00,56.0,56.0,-100.00,SSE,150,3.0,6.0,99,0.00,,,-99.99,,2013-04-11 06:52:00,
2013-04-11 03:02:00,56.0,56.0,-100.00,SE,130,4.0,7.0,99,0.00,,,-99.99,,2013-04-11 07:02:00,
2013-04-11 03:12:00,56.0,56.0,-100.00,SE,140,5.0,7.0,99,0.00,,,-99.99,,2013-04-11 07:12:00,
2013-04-11 03:22:00,56.0,56.0,-100.00,SE,135,4.0,8.0,99,0.00,,,-99.99,,2013-04-11 07:22:00,
2013-04-11 03:32:00,56.0,56.0,-100.00,SE,140,6.0,9.0,99,0.00,,,-99.99,,2013-04-11 07:32:00,
2013-04-11 03:42:00,56.0,56.0,-100.00,SE,130,6.0,9.0,99,0.00,,,-99.99,,2013-04-11 07:42:00,
2013-04-11 03:52:00,56.0,56.0,-100.00,SE,140,4.0,7.0,99,0.00,,,-99.99,,2013-04-11 07:52:00,
2013-04-11 04:03:00,56.0,56.0,-100.00,SE,145,7.0,9.0,99,0.00,,,-99.99,,2013-04-11 08:03:00,
2013-04-11 04:12:00,56.0,56.0,-100.00,SSE,150,9.0,12.0,99,0.00,,,-99.99,,2013-04-11 08:12:00,
2013-04-11 04:22:00,56.0,56.0,-100.00,SE,145,9.0,13.0,99,0.00,,,-99.99,,2013-04-11 08:22:00,
2013-04-11 04:32:00,56.0,56.0,-100.00,SE,140,10.0,13.0,99,0.00,,,-99.99,,2013-04-11 08:32:00,
2013-04-11 04:42:00,56.0,56.0,-100.00,SE,145,9.0,11.0,99,0.00,,,-99.99,,2013-04-11 08:42:00,
2013-04-11 04:52:00,56.0,55.0,-100.00,SE,130,7.0,11.0,99,0.00,,,-99.99,,2013-04-11 08:52:00,
2013-04-11 05:02:00,56.0,55.0,-100.00,SE,140,8.0,14.0,99,0.00,,,-99.99,,2013-04-11 09:02:00,
2013-04-11 05:12:00,56.0,56.0,-100.00,SSE,160,10.0,14.0,98,0.00,,,-99.99,,2013-04-11 09:12:00,
2013-04-11 05:22:00,56.0,56.0,-100.00,SSE,160,10.0,14.0,98,0.00,,,-99.99,,2013-04-11 09:22:00,
2013-04-11 05:33:00,56.0,56.0,-100.00,SSE,160,10.0,14.0,98,0.00,,,-99.99,,2013-04-11 09:33:00,
2013-04-11 05:43:00,56.0,56.0,-100.00,SSE,160,10.0,14.0,98,0.00,,,-99.99,,2013-04-11 09:43:00,
2013-04-11 05:52:00,56.0,55.0,-100.00,SSE,150,9.0,12.0,97,0.00,,,-99.99,,2013-04-11 09:52:00,
2013-04-11 06:03:00,56.0,55.0,-100.00,SE,145,9.0,12.0,96,0.00,,,-99.99,,2013-04-11 10:03:00,
2013-04-11 06:13:00,56.0,55.0,-100.00,SSE,150,10.0,16.0,96,0.00,,,-99.99,,2013-04-11 10:13:00,
2013-04-11 06:23:00,56.0,55.0,-100.00,SSE,160,10.0,14.0,95,0.00,,,-99.99,,2013-04-11 10:23:00,
2013-04-11 06:32:00,57.0,55.0,-100.00,SSE,155,11.0,14.0,94,0.00,,,-99.99,,2013-04-11 10:32:00,
2013-04-11 06:42:00,57.0,55.0,-100.00,SSE,155,11.0,14.0,94,0.00,,,-99.99,,2013-04-11 10:42:00,
2013-04-11 06:52:00,57.0,55.0,-100.00,South,175,8.0,16.0,92,0.00,,,-99.99,,2013-04-11 10:52:00,
2013-04-11 07:03:00,57.0,55.0,-100.00,South,175,8.0,16.0,92,0.00,,,-99.99,,2013-04-11 11:03:00,
2013-04-11 07:12:00,58.0,55.0,-100.00,SSE,155,9.0,12.0,90,0.00,,,-99.99,,2013-04-11 11:12:00,
2013-04-11 07:23:00,58.0,55.0,-100.00,SSE,150,9.0,12.0,89,0.00,,,-99.99,,2013-04-11 11:23:00,
2013-04-11 07:32:00,58.0,55.0,-100.00,SSE,150,9.0,12.0,89,0.00,,,-99.99,,2013-04-11 11:32:00,
2013-04-11 07:42:00,58.0,55.0,-100.00,SSE,150,9.0,12.0,89,0.00,,,-99.99,,2013-04-11 11:42:00,
2013-04-11 07:52:00,58.0,55.0,-100.00,SSE,155,7.0,12.0,88,0.00,,,-99.99,,2013-04-11 11:52:00,
2013-04-11 08:02:00,58.0,55.0,-100.00,South,185,5.0,11.0,87,0.00,,,-99.99,,2013-04-11 12:02:00,
2013-04-11 08:12:00,58.0,55.0,-100.00,West,280,3.0,14.0,90,0.00,,,-99.99,,2013-04-11 12:12:00,
2013-04-11 08:22:00,59.0,55.0,-100.00,SW,235,4.0,13.0,85,0.00,,,-99.99,,2013-04-11 12:22:00,
2013-04-11 08:32:00,59.0,55.0,-100.00,WNW,285,2.0,9.0,86,0.00,,,-99.99,,2013-04-11 12:32:00,
2013-04-11 08:42:00,59.0,55.0,-100.00,SW,230,1.0,5.0,87,0.00,,,-99.99,,2013-04-11 12:42:00,
2013-04-11 08:52:00,59.0,55.0,-100.00,NW,305,1.0,4.0,86,0.00,,,-99.99,,2013-04-11 12:52:00,
2013-04-11 09:02:00,59.0,55.0,-100.00,NW,315,1.0,2.0,86,0.00,,,-99.99,,2013-04-11 13:02:00,
2013-04-11 09:12:00,60.0,56.0,-100.00,NW,310,1.0,2.0,86,0.00,,,-99.99,,2013-04-11 13:12:00,
2013-04-11 09:23:00,60.0,56.0,-100.00,NW,310,6.0,7.0,88,0.00,,,-99.99,,2013-04-11 13:23:00,
2013-04-11 09:32:00,60.0,56.0,-100.00,NW,320,6.0,7.0,87,0.00,,,-99.99,,2013-04-11 13:32:00,
2013-04-11 09:43:00,59.0,56.0,-100.00,NW,325,4.0,6.0,88,0.00,,,-99.99,,2013-04-11 13:43:00,
2013-04-11 09:53:00,59.0,56.0,-100.00,North,355,1.0,4.0,87,0.00,,,-99.99,,2013-04-11 13:53:00,
2013-04-11 10:03:00,60.0,56.0,-100.00,NNW,345,0.0,1.0,87,0.00,,,-99.99,,2013-04-11 14:03:00,
2013-04-11 10:12:00,60.0,56.0,-100.00,NW,315,0.0,1.0,86,0.00,,,-99.99,,2013-04-11 14:12:00,
2013-04-11 10:22:00,60.0,56.0,-100.00,NNW,330,1.0,1.0,86,0.00,,,-99.99,,2013-04-11 14:22:00,
2013-04-11 10:32:00,60.0,56.0,-100.00,NW,305,1.0,2.0,88,0.00,,,-99.99,,2013-04-11 14:32:00,
2013-04-11 10:42:00,60.0,57.0,-100.00,WNW,295,1.0,2.0,88,0.00,,,-99.99,,2013-04-11 14:42:00,
2013-04-11 10:52:00,60.0,57.0,-100.00,NW,315,4.0,6.0,89,0.00,,,-99.99,,2013-04-11 14:52:00,
2013-04-11 11:02:00,60.0,56.0,-100.00,WNW,285,9.0,13.0,89,1.10,,,-99.99,,2013-04-11 15:02:00,
2013-04-11 11:12:00,58.0,56.0,-100.00,West,275,4.0,8.0,94,2.83,,,-99.99,,2013-04-11 15:12:00,
2013-04-11 11:22:00,57.0,56.0,-100.00,SW,225,0.0,6.0,95,3.94,,,-99.99,,2013-04-11 15:22:00,
2013-04-11 11:32:00,57.0,56.0,-100.00,SW,225,0.0,6.0,95,3.94,,,-99.99,,2013-04-11 15:32:00,
2013-04-11 11:43:00,58.0,57.0,-100.00,East,80,5.0,6.0,97,0.00,,,-99.99,,2013-04-11 15:43:00,
2013-04-11 11:52:00,58.0,57.0,-100.00,ESE,110,7.0,10.0,97,0.00,,,-99.99,,2013-04-11 15:52:00,
2013-04-11 12:02:00,58.0,57.0,-100.00,East,95,9.0,17.0,97,0.00,,,-99.99,,2013-04-11 16:02:00,
2013-04-11 12:13:00,58.0,57.0,-100.00,ESE,120,4.0,13.0,96,0.00,,,-99.99,,2013-04-11 16:13:00,
2013-04-11 12:23:00,59.0,58.0,-100.00,SW,230,1.0,5.0,96,0.00,,,-99.99,,2013-04-11 16:23:00,
2013-04-11 12:32:00,59.0,58.0,-100.00,South,170,7.0,8.0,96,0.00,,,-99.99,,2013-04-11 16:32:00,
2013-04-11 12:42:00,59.0,58.0,-100.00,South,170,5.0,9.0,95,0.00,,,-99.99,,2013-04-11 16:42:00,
2013-04-11 12:52:00,59.0,58.0,-100.00,SSE,155,12.0,14.0,96,0.00,,,-99.99,,2013-04-11 16:52:00,
2013-04-11 13:02:00,59.0,58.0,-100.00,SSE,165,12.0,16.0,95,0.00,,,-99.99,,2013-04-11 17:02:00,
2013-04-11 13:13:00,59.0,58.0,-100.00,SSE,155,16.0,19.0,95,0.00,,,-99.99,,2013-04-11 17:13:00,
2013-04-11 13:23:00,60.0,58.0,-100.00,SSE,165,10.0,17.0,93,0.00,,,-99.99,,2013-04-11 17:23:00,
2013-04-11 13:33:00,59.0,58.0,-100.00,SSE,150,10.0,14.0,94,0.00,,,-99.99,,2013-04-11 17:33:00,
2013-04-11 13:43:00,59.0,58.0,-100.00,SE,130,10.0,14.0,94,0.00,,,-99.99,,2013-04-11 17:43:00,
2013-04-11 13:52:00,60.0,58.0,-100.00,SE,145,9.0,14.0,95,0.00,,,-99.99,,2013-04-11 17:52:00,
2013-04-11 14:03:00,60.0,58.0,-100.00,SE,145,9.0,14.0,95,0.00,,,-99.99,,2013-04-11 18:03:00,
2013-04-11 14:13:00,60.0,58.0,-100.00,SE,145,12.0,16.0,92,0.00,,,-99.99,,2013-04-11 18:13:00,
2013-04-11 14:23:00,61.0,58.0,-100.00,SE,135,14.0,19.0,92,0.00,,,-99.99,,2013-04-11 18:23:00,
2013-04-11 14:33:00,61.0,58.0,-100.00,SE,130,10.0,17.0,91,0.00,,,-99.99,,2013-04-11 18:33:00,
2013-04-11 14:43:00,62.0,59.0,-100.00,SE,125,12.0,17.0,90,0.00,,,-99.99,,2013-04-11 18:43:00,
2013-04-11 14:52:00,63.0,59.0,-100.00,SSE,155,9.0,19.0,87,0.00,,,-99.99,,2013-04-11 18:52:00,
2013-04-11 15:03:00,63.0,60.0,-100.00,NW,310,6.0,12.0,87,0.00,,,-99.99,,2013-04-11 19:03:00,
2013-04-11 15:14:00,63.0,59.0,-100.00,NW,320,11.0,15.0,86,0.00,,,-99.99,,2013-04-11 19:14:00,
2013-04-11 15:22:00,63.0,59.0,-100.00,WNW,300,7.0,14.0,86,0.00,,,-99.99,,2013-04-11 19:22:00,
2013-04-11 15:32:00,63.0,58.0,-100.00,WNW,285,6.0,9.0,85,0.00,,,-99.99,,2013-04-11 19:32:00,
2013-04-11 15:43:00,63.0,59.0,-100.00,NW,320,3.0,6.0,85,0.00,,,-99.99,,2013-04-11 19:43:00,
2013-04-11 15:52:00,63.0,59.0,-100.00,NNE,15,2.0,5.0,85,0.00,,,-99.99,,2013-04-11 19:52:00,
2013-04-11 16:03:00,63.0,59.0,-100.00,North,0,4.0,6.0,86,0.00,,,-99.99,,2013-04-11 20:03:00,
2013-04-11 16:13:00,63.0,59.0,-100.00,NNE,30,2.0,6.0,85,0.00,,,-99.99,,2013-04-11 20:13:00,
2013-04-11 16:22:00,64.0,58.0,-100.00,NE,50,2.0,4.0,83,0.00,,,-99.99,,2013-04-11 20:22:00,
2013-04-11 16:33:00,64.0,59.0,-100.00,NE,45,1.0,4.0,83,0.00,,,-99.99,,2013-04-11 20:33:00,
2013-04-11 16:42:00,64.0,59.0,-100.00,East,80,2.0,6.0,85,0.00,,,-99.99,,2013-04-11 20:42:00,
2013-04-11 16:52:00,64.0,59.0,-100.00,ENE,75,4.0,6.0,84,0.00,,,-99.99,,2013-04-11 20:52:00,
2013-04-11 17:03:00,64.0,58.0,-100.00,ENE,75,3.0,6.0,82,0.00,,,-99.99,,2013-04-11 21:03:00,
2013-04-11 17:12:00,64.0,59.0,-100.00,NE,35,2.0,6.0,82,0.00,,,-99.99,,2013-04-11 21:12:00,
2013-04-11 17:22:00,64.0,59.0,-100.00,ENE,75,3.0,6.0,83,0.00,,,-99.99,,2013-04-11 21:22:00,
2013-04-11 17:33:00,64.0,59.0,-100.00,East,80,3.0,6.0,83,0.00,,,-99.99,,2013-04-11 21:33:00,
2013-04-11 17:42:00,64.0,59.0,-100.00,ENE,70,2.0,6.0,83,0.00,,,-99.99,,2013-04-11 21:42:00,
2013-04-11 17:53:00,64.0,59.0,-100.00,NNE,30,4.0,6.0,84,0.00,,,-99.99,,2013-04-11 21:53:00,
2013-04-11 18:03:00,63.0,59.0,-100.00,NNE,30,6.0,9.0,84,0.00,,,-99.99,,2013-04-11 22:03:00,
2013-04-11 18:13:00,63.0,59.0,-100.00,NNE,30,4.0,7.0,86,0.00,,,-99.99,,2013-04-11 22:13:00,
2013-04-11 18:23:00,62.0,58.0,-100.00,NNE,30,5.0,9.0,86,0.00,,,-99.99,,2013-04-11 22:23:00,
2013-04-11 18:33:00,62.0,58.0,-100.00,NNE,25,6.0,9.0,86,0.00,,,-99.99,,2013-04-11 22:33:00,
2013-04-11 18:44:00,61.0,57.0,-100.00,North,0,7.0,10.0,87,0.00,,,-99.99,,2013-04-11 22:44:00,
2013-04-11 18:52:00,61.0,57.0,-100.00,North,0,7.0,10.0,87,0.00,,,-99.99,,2013-04-11 22:52:00,
2013-04-11 19:03:00,59.0,56.0,-100.00,North,5,11.0,14.0,91,0.00,,,-99.99,,2013-04-11 23:03:00,
2013-04-11 19:13:00,58.0,56.0,-100.00,North,10,9.0,12.0,92,0.00,,,-99.99,,2013-04-11 23:13:00,
2013-04-11 19:23:00,57.0,55.0,-100.00,North,5,10.0,16.0,93,0.00,,,-99.99,,2013-04-11 23:23:00,
2013-04-11 19:33:00,57.0,55.0,-100.00,NNE,15,7.0,11.0,93,0.00,,,-99.99,,2013-04-11 23:33:00,
2013-04-11 19:42:00,56.0,55.0,-100.00,North,0,7.0,12.0,94,1.10,,,-99.99,,2013-04-11 23:42:00,
2013-04-11 19:53:00,56.0,55.0,-100.00,NNE,25,10.0,14.0,94,0.00,,,-99.99,,2013-04-11 23:53:00,
2013-04-11 20:02:00,56.0,55.0,-100.00,NNE,20,7.0,14.0,95,0.00,,,-99.99,,2013-04-12 00:02:00,
2013-04-11 20:12:00,56.0,55.0,-100.00,NNE,25,7.0,12.0,95,0.00,,,-99.99,,2013-04-12 00:12:00,
2013-04-11 20:22:00,56.0,55.0,-100.00,NNE,25,7.0,12.0,95,0.00,,,-99.99,,2013-04-12 00:22:00,
2013-04-11 20:32:00,56.0,55.0,-100.00,NNE,25,10.0,16.0,95,0.00,,,-99.99,,2013-04-12 00:32:00,
2013-04-11 20:42:00,56.0,54.0,-100.00,NE,45,11.0,15.0,94,0.00,,,-99.99,,2013-04-12 00:42:00,
2013-04-11 20:52:00,56.0,54.0,-100.00,ENE,60,7.0,13.0,94,0.00,,,-99.99,,2013-04-12 00:52:00,
2013-04-11 21:02:00,56.0,54.0,-100.00,NE,55,7.0,13.0,94,0.00,,,-99.99,,2013-04-12 01:02:00,
2013-04-11 21:12:00,56.0,54.0,-100.00,ENE,75,9.0,16.0,93,0.00,,,-99.99,,2013-04-12 01:12:00,
2013-04-11 21:22:00,56.0,54.0,-100.00,ENE,65,9.0,17.0,92,0.00,,,-99.99,,2013-04-12 01:22:00,
2013-04-11 21:32:00,56.0,54.0,-100.00,East,80,12.0,17.0,92,0.00,,,-99.99,,2013-04-12 01:32:00,
2013-04-11 21:42:00,56.0,53.0,-100.00,ENE,75,12.0,19.0,91,0.00,,,-99.99,,2013-04-12 01:42:00,
2013-04-11 21:52:00,56.0,53.0,-100.00,ENE,75,12.0,19.0,91,0.00,,,-99.99,,2013-04-12 01:52:00,
2013-04-11 22:03:00,56.0,53.0,-100.00,East,80,8.0,12.0,91,0.00,,,-99.99,,2013-04-12 02:03:00,
2013-04-11 22:12:00,56.0,53.0,-100.00,East,80,6.0,12.0,91,0.00,,,-99.99,,2013-04-12 02:12:00,
2013-04-11 22:22:00,56.0,53.0,-100.00,East,80,6.0,12.0,91,0.00,,,-99.99,,2013-04-12 02:22:00,
2013-04-11 22:32:00,56.0,53.0,-100.00,East,85,6.0,12.0,91,0.00,,,-99.99,,2013-04-12 02:32:00,
2013-04-11 22:42:00,56.0,53.0,-100.00,ESE,105,3.0,9.0,90,0.00,,,-99.99,,2013-04-12 02:42:00,
2013-04-11 22:52:00,56.0,54.0,-100.00,WSW,255,9.0,12.0,91,0.00,,,-99.99,,2013-04-12 02:52:00,
2013-04-11 23:02:00,56.0,54.0,-100.00,WSW,255,11.0,19.0,92,0.00,,,-99.99,,2013-04-12 03:02:00,
2013-04-11 23:12:00,56.0,54.0,-100.00,West,270,8.0,16.0,93,0.55,,,-99.99,,2013-04-12 03:12:00,
2013-04-11 23:22:00,56.0,54.0,-100.00,WSW,255,6.0,14.0,95,1.10,,,-99.99,,2013-04-12 03:22:00,
2013-04-11 23:33:00,55.0,54.0,-100.00,WNW,295,5.0,12.0,96,0.55,,,-99.99,,2013-04-12 03:33:00,
2013-04-11 23:43:00,55.0,55.0,-100.00,NW,315,5.0,8.0,97,0.00,,,-99.99,,2013-04-12 03:43:00,
2013-04-11 23:52:00,55.0,55.0,-100.00,North,0,4.0,6.0,97,0.55,,,-99.99,,2013-04-12 03:52:00,